Caldwell, ID

3:31 AM MST on November 18, 2017 (GMT -0700)
Caldwell Industrial

Weather History for KEUL - November, 2013

Change the Weather History Date:

Tuesday, November 19, 2013

  Actual Average (KBOI) Record (KBOI)
Temperature  
Mean Temperature 38 °F -  
Max Temperature 41 °F 45 °F 66 °F (1908)
Min Temperature 37 °F 28 °F 7 °F (1985)
Degree Days  
Heating Degree Days 27    
Moisture  
Dew Point 30 °F    
Average Humidity 74    
Maximum Humidity 81    
Minimum Humidity 70    
Precipitation  
Precipitation 0.18 in - - ()
Sea Level Pressure  
Sea Level Pressure 29.92 in    
Wind  
Wind Speed 4 mph (SSE)    
Max Wind Speed 7 mph    
Max Gust Speed -    
Visibility 9 miles    
Events      
Averages and records for this station are not official NWS values.
T = Trace of Precipitation, MM = Missing Value Source: NWS Daily Summary

Daily Weather History Graph

Daily Weather History Graph

Search for Another Location

Airport or City:

Trip Planner

Search our weather history database for the weather conditions in past years. The results will help you decide how hot, cold, wet, or windy it might be!

Date:

Astronomy

Nov. 19, 2013 Rise Set
Actual Time 7:46 AM MST 5:17 PM MST
Civil Twilight 7:14 AM MST 5:48 PM MST
Nautical Twilight 6:39 AM MST 6:23 PM MST
Astronomical Twilight 6:05 AM MST 6:57 PM MST
Moon 7:11 PM MST (11/19) 9:29 AM MST (11/19)
Length of Visible Light 10h 33m
Length of Day
9h 31m
Waning Gibbous, 96% of the Moon is Illuminated
Nov 19
Waning Gibbous
Nov 25
Last Quarter
Dec 2
New
Dec 9
First Quarter
Dec 17
Full

Hourly Weather History & Observations

Time (MST) Temp. Windchill Dew Point Humidity Pressure Visibility Wind Dir Wind Speed Gust Speed Precip Events Conditions
12:15 AM 37.4 °F 33.8 °F 28.4 °F 70% 29.93 in 10.0 mi West 4.6 mph - N/A   Overcast
12:35 AM 37.4 °F 34.9 °F 28.4 °F 70% 29.93 in 10.0 mi WNW 3.5 mph - N/A   Overcast
12:55 AM 37.4 °F 33.8 °F 28.4 °F 70% 29.93 in 10.0 mi West 4.6 mph - N/A   Overcast
1:15 AM 37.4 °F 34.9 °F 28.4 °F 70% 29.93 in 10.0 mi NNW 3.5 mph - N/A   Overcast
1:35 AM 37.4 °F 34.9 °F 28.4 °F 70% 29.92 in 10.0 mi ENE 3.5 mph - N/A   Overcast
1:55 AM 37.4 °F - 28.4 °F 70% 29.92 in 10.0 mi Calm Calm - N/A   Overcast
2:15 AM 37.4 °F 34.9 °F 28.4 °F 70% 29.91 in 10.0 mi ESE 3.5 mph - N/A   Overcast
2:35 AM 37.4 °F - 28.4 °F 70% 29.91 in 10.0 mi Calm Calm - N/A   Overcast
2:55 AM 37.4 °F 33.8 °F 30.2 °F 75% 29.92 in 10.0 mi South 4.6 mph - N/A   Overcast
3:15 AM 37.4 °F 34.9 °F 30.2 °F 75% 29.92 in 10.0 mi South 3.5 mph - N/A   Overcast
3:35 AM 37.4 °F - 30.2 °F 75% 29.92 in 10.0 mi Calm Calm - N/A   Overcast
3:55 AM 37.4 °F 34.9 °F 30.2 °F 75% 29.92 in 10.0 mi SSE 3.5 mph - 0.01 in   Overcast
4:15 AM 37.4 °F 33.8 °F 30.2 °F 75% 29.92 in 10.0 mi SSW 4.6 mph - 0.01 in   Overcast
4:35 AM 37.4 °F 32.1 °F 30.2 °F 75% 29.92 in 10.0 mi South 6.9 mph - 0.02 in   Overcast
4:55 AM 37.4 °F 32.8 °F 30.2 °F 75% 29.91 in 10.0 mi South 5.8 mph - 0.03 in   Overcast
5:15 AM 37.4 °F 33.8 °F 30.2 °F 75% 29.91 in 9.0 mi SSE 4.6 mph - 0.01 in   Overcast
5:35 AM 37.4 °F 32.8 °F 30.2 °F 75% 29.91 in 7.0 mi SE 5.8 mph - 0.01 in   Overcast
5:55 AM 37.4 °F 32.8 °F 30.2 °F 75% 29.91 in 6.0 mi SE 5.8 mph - 0.04 in   Overcast
6:15 AM 37.4 °F 33.8 °F 30.2 °F 75% 29.91 in 7.0 mi SE 4.6 mph - 0.01 in   Overcast
6:35 AM 37.4 °F 34.9 °F 30.2 °F 75% 29.91 in 7.0 mi SSE 3.5 mph - 0.03 in   Overcast
6:55 AM 39.2 °F 35.0 °F 32.0 °F 75% 29.91 in 6.0 mi South 5.8 mph - 0.04 in   Overcast
7:15 AM 39.2 °F 35.9 °F 32.0 °F 75% 29.92 in 6.0 mi South 4.6 mph - 0.01 in   Overcast
7:35 AM 39.2 °F 35.0 °F 32.0 °F 75% 29.92 in 8.0 mi South 5.8 mph - 0.02 in   Overcast
7:55 AM 39.2 °F 34.2 °F 32.0 °F 75% 29.92 in 7.0 mi SSE 6.9 mph - 0.04 in   Overcast
8:15 AM 39.2 °F 34.2 °F 32.0 °F 75% 29.92 in 6.0 mi South 6.9 mph - 0.01 in   Overcast
8:35 AM 39.2 °F 34.2 °F 32.0 °F 75% 29.93 in 8.0 mi SSE 6.9 mph - 0.02 in   Overcast
8:55 AM 39.2 °F 34.2 °F 32.0 °F 75% 29.92 in 8.0 mi South 6.9 mph - 0.02 in   Overcast
9:15 AM 39.2 °F 35.0 °F 33.8 °F 81% 29.93 in 8.0 mi SE 5.8 mph - N/A   Overcast
9:35 AM 41.0 °F 38.0 °F 33.8 °F 76% 29.93 in 8.0 mi SSE 4.6 mph - N/A   Overcast